RYR771 EGLL-EGCC

Flight info

Callsign RYR771
Flight time 0h 33m
Altitude 18000
Route ULTIB1J ULTIB T420 ELVOS ELVOS1M
Aircraft B738/M-SDE2E3FGHIRWXY/LB1

Departure

Time 2026-05-05 19:32
Airport London Heathrow Airport (EGLL)

Arrival

Time 2026-05-05 20:06
Airport Manchester Airport (EGCC)
Time Latitude Longitude Altitude Speed Heading
2026-05-05 19:02 51.47415 -0.48831 85 ft 0 kts 180°
2026-05-05 19:13 51.47417 -0.48831 84 ft 3 kts 180°
2026-05-05 19:13 51.47444 -0.48828 85 ft 4 kts 190°
2026-05-05 19:13 51.47469 -0.48817 88 ft 4 kts 211°
2026-05-05 19:13 51.47485 -0.48790 86 ft 3 kts 265°
2026-05-05 19:14 51.47485 -0.48785 86 ft 1 kts 270°
2026-05-05 19:15 51.47485 -0.48786 86 ft 1 kts 270°
2026-05-05 19:16 51.47485 -0.48818 85 ft 6 kts 271°
2026-05-05 19:16 51.47493 -0.48903 85 ft 9 kts 292°
2026-05-05 19:16 51.47545 -0.48957 86 ft 10 kts
2026-05-05 19:16 51.47579 -0.48873 88 ft 10 kts 92°
2026-05-05 19:17 51.47577 -0.48751 86 ft 11 kts 90°
2026-05-05 19:17 51.47577 -0.48631 88 ft 11 kts 86°
2026-05-05 19:17 51.47571 -0.48513 89 ft 12 kts 118°
2026-05-05 19:17 51.47477 -0.48476 84 ft 16 kts 180°
2026-05-05 19:18 51.47361 -0.48477 84 ft 17 kts 180°
2026-05-05 19:18 51.47246 -0.48476 84 ft 17 kts 179°
2026-05-05 19:18 51.47124 -0.48476 84 ft 18 kts 179°
2026-05-05 19:18 51.46991 -0.48474 84 ft 19 kts 179°
2026-05-05 19:19 51.46876 -0.48471 86 ft 10 kts 180°
2026-05-05 19:19 51.46870 -0.48471 86 ft 0 kts 179°
2026-05-05 19:24 51.46867 -0.48471 84 ft 2 kts 179°
2026-05-05 19:24 51.46821 -0.48470 84 ft 7 kts 179°
2026-05-05 19:24 51.46769 -0.48472 84 ft 8 kts 192°
2026-05-05 19:24 51.46737 -0.48599 84 ft 19 kts 271°
2026-05-05 19:25 51.46691 -0.48749 85 ft 15 kts 189°
2026-05-05 19:25 51.46600 -0.48765 87 ft 10 kts 200°
2026-05-05 19:25 51.46595 -0.48769 86 ft 1 kts 201°
2026-05-05 19:30 51.46581 -0.48777 84 ft 6 kts 200°
2026-05-05 19:30 51.46507 -0.48771 87 ft 14 kts 148°
2026-05-05 19:31 51.46478 -0.48646 85 ft 0 kts 89°
2026-05-05 19:31 51.46479 -0.48488 85 ft 47 kts 89°
2026-05-05 19:32 51.46486 -0.47450 84 ft 136 kts 88°
2026-05-05 19:32 51.46483 -0.45635 497 ft 176 kts 89°
2026-05-05 19:32 51.46442 -0.43586 1591 ft 188 kts 94°
2026-05-05 19:32 51.46358 -0.41515 2778 ft 195 kts 80°
2026-05-05 19:33 51.46954 -0.39404 3235 ft 232 kts 47°
2026-05-05 19:33 51.48192 -0.37474 3985 ft 254 kts 49°
2026-05-05 19:33 51.49266 -0.35216 5350 ft 256 kts 50°
2026-05-05 19:33 51.50460 -0.32864 6049 ft 284 kts 48°
2026-05-05 19:34 51.51724 -0.30483 7470 ft 276 kts 48°
2026-05-05 19:34 51.52765 -0.27910 8754 ft 279 kts 66°
2026-05-05 19:34 51.53414 -0.24935 9839 ft 286 kts 69°
2026-05-05 19:35 51.54957 -0.18962 11737 ft 294 kts 47°
2026-05-05 19:35 51.56593 -0.17071 12706 ft 294 kts 19°
2026-05-05 19:35 51.58617 -0.16553 13590 ft 300 kts 354°
2026-05-05 19:35 51.60667 -0.17503 13994 ft 321 kts 330°
2026-05-05 19:36 51.62371 -0.20036 14036 ft 353 kts 302°
2026-05-05 19:36 51.63398 -0.23808 14049 ft 382 kts 292°
2026-05-05 19:36 51.64917 -0.27469 14032 ft 409 kts 316°
2026-05-05 19:36 51.67253 -0.30232 14027 ft 421 kts 330°
2026-05-05 19:37 51.69804 -0.32331 14007 ft 401 kts 334°
2026-05-05 19:37 51.72245 -0.34225 13998 ft 380 kts 333°
2026-05-05 19:37 51.74549 -0.36159 14009 ft 368 kts 330°
2026-05-05 19:37 51.76796 -0.38222 14178 ft 377 kts 329°
2026-05-05 19:38 51.79045 -0.40376 14912 ft 375 kts 328°
2026-05-05 19:38 51.81289 -0.42548 15633 ft 378 kts 328°
2026-05-05 19:38 51.83558 -0.44766 16150 ft 385 kts 328°
2026-05-05 19:38 51.85865 -0.47028 16760 ft 389 kts 328°
2026-05-05 19:39 51.88186 -0.49303 17404 ft 393 kts 328°
2026-05-05 19:39 51.90540 -0.51609 17930 ft 397 kts 328°
2026-05-05 19:39 51.92927 -0.53949 17956 ft 407 kts 328°
2026-05-05 19:39 51.95363 -0.56337 17971 ft 411 kts 328°
2026-05-05 19:40 51.97810 -0.58724 17961 ft 409 kts 328°
2026-05-05 19:40 52.00246 -0.61099 17964 ft 408 kts 328°
2026-05-05 19:40 52.02691 -0.63485 17975 ft 414 kts 328°
2026-05-05 19:40 52.05184 -0.65924 17975 ft 423 kts 328°
2026-05-05 19:41 52.07707 -0.68396 17965 ft 422 kts 328°
2026-05-05 19:41 52.10219 -0.70860 17961 ft 421 kts 328°
2026-05-05 19:41 52.12737 -0.73334 18106 ft 425 kts 328°
2026-05-05 19:41 52.15261 -0.75827 18510 ft 423 kts 327°
2026-05-05 19:42 52.17761 -0.78304 19014 ft 417 kts 327°
2026-05-05 19:42 52.20226 -0.80749 19479 ft 413 kts 327°
2026-05-05 19:42 52.22677 -0.83184 19797 ft 413 kts 327°
2026-05-05 19:42 52.25131 -0.85624 19971 ft 411 kts 327°
2026-05-05 19:43 52.27583 -0.88057 19977 ft 414 kts 327°
2026-05-05 19:43 52.30042 -0.90495 19986 ft 414 kts 327°
2026-05-05 19:43 52.32500 -0.92933 19994 ft 414 kts 327°
2026-05-05 19:43 52.34963 -0.95380 19992 ft 414 kts 327°
2026-05-05 19:44 52.37426 -0.97831 19995 ft 414 kts 327°
2026-05-05 19:44 52.39892 -1.00289 19994 ft 414 kts 327°
2026-05-05 19:44 52.42352 -1.02746 19989 ft 414 kts 327°
2026-05-05 19:44 52.44812 -1.05204 19984 ft 414 kts 327°
2026-05-05 19:45 52.47270 -1.07663 19987 ft 414 kts 327°
2026-05-05 19:45 52.49725 -1.10127 19993 ft 413 kts 326°
2026-05-05 19:45 52.52169 -1.12602 19992 ft 413 kts 326°
2026-05-05 19:45 52.54574 -1.15046 19992 ft 412 kts 326°
2026-05-05 19:46 52.57018 -1.17530 19993 ft 412 kts 326°
2026-05-05 19:46 52.59488 -1.20031 19995 ft 412 kts 326°
2026-05-05 19:46 52.61917 -1.22489 19981 ft 403 kts 326°
2026-05-05 19:46 52.64258 -1.24858 19977 ft 387 kts 326°
2026-05-05 19:47 52.66525 -1.27157 19986 ft 380 kts 326°
2026-05-05 19:47 52.68770 -1.29441 19993 ft 379 kts 326°
2026-05-05 19:47 52.71013 -1.31727 19837 ft 382 kts 326°
2026-05-05 19:47 52.73287 -1.34041 19315 ft 383 kts 326°
2026-05-05 19:48 52.75549 -1.36343 18900 ft 381 kts 326°
2026-05-05 19:48 52.77800 -1.38635 18450 ft 377 kts 326°
2026-05-05 19:48 52.80022 -1.40900 17965 ft 374 kts 326°
2026-05-05 19:48 52.82218 -1.43143 17489 ft 369 kts 326°
2026-05-05 19:49 52.84389 -1.45363 17040 ft 365 kts 326°
2026-05-05 19:49 52.85810 -1.46818 16753 ft 362 kts 326°
2026-05-05 19:49 52.88651 -1.49731 16181 ft 356 kts 327°
2026-05-05 19:49 52.90741 -1.51877 15761 ft 352 kts 327°
2026-05-05 19:50 52.92809 -1.54004 15359 ft 348 kts 327°
2026-05-05 19:50 52.94851 -1.56105 14955 ft 344 kts 327°
2026-05-05 19:50 52.96874 -1.58190 14555 ft 341 kts 327°
2026-05-05 19:50 52.98856 -1.60234 14160 ft 338 kts 327°
2026-05-05 19:51 53.00845 -1.62287 13764 ft 336 kts 327°
2026-05-05 19:51 53.02820 -1.64328 13338 ft 333 kts 327°
2026-05-05 19:51 53.04777 -1.66361 12917 ft 330 kts 326°
2026-05-05 19:51 53.06479 -1.68862 12521 ft 326 kts 310°
2026-05-05 19:52 53.07914 -1.71740 12145 ft 322 kts 309°
2026-05-05 19:52 53.09328 -1.74554 11757 ft 311 kts 310°
2026-05-05 19:52 53.10705 -1.77254 11397 ft 301 kts 310°
2026-05-05 19:52 53.12041 -1.79860 11038 ft 291 kts 310°
2026-05-05 19:53 53.13357 -1.82419 10701 ft 283 kts 311°
2026-05-05 19:53 53.14606 -1.84846 10384 ft 277 kts 311°
2026-05-05 19:53 53.15854 -1.87275 10063 ft 273 kts 311°
2026-05-05 19:53 53.17070 -1.89645 9738 ft 266 kts 311°
2026-05-05 19:54 53.18263 -1.91968 9393 ft 261 kts 311°
2026-05-05 19:54 53.19432 -1.94248 9086 ft 256 kts 311°
2026-05-05 19:54 53.20580 -1.96491 8799 ft 254 kts 311°
2026-05-05 19:54 53.21729 -1.98736 8500 ft 255 kts 310°
2026-05-05 19:55 53.22746 -2.01100 8255 ft 246 kts 293°
2026-05-05 19:55 53.23046 -2.03804 8053 ft 234 kts 270°
2026-05-05 19:55 53.22730 -2.06422 7752 ft 227 kts 250°
2026-05-05 19:55 53.22053 -2.08737 7522 ft 218 kts 243°
2026-05-05 19:56 53.21334 -2.10906 7313 ft 210 kts 243°
2026-05-05 19:56 53.20866 -2.12306 7184 ft 206 kts 242°
2026-05-05 19:56 53.20173 -2.14383 6985 ft 203 kts 242°
2026-05-05 19:56 53.19505 -2.16401 6825 ft 194 kts 242°
2026-05-05 19:57 53.18867 -2.18336 6641 ft 186 kts 242°
2026-05-05 19:57 53.18251 -2.20213 6462 ft 184 kts 242°
2026-05-05 19:57 53.17634 -2.22098 6299 ft 187 kts 242°
2026-05-05 19:57 53.17007 -2.24015 6130 ft 189 kts 242°
2026-05-05 19:58 53.16373 -2.25954 5938 ft 191 kts 241°
2026-05-05 19:58 53.15735 -2.27904 5763 ft 192 kts 241°
2026-05-05 19:58 53.15092 -2.29867 5574 ft 193 kts 241°
2026-05-05 19:58 53.14469 -2.31845 5379 ft 193 kts 250°
2026-05-05 19:59 53.14438 -2.34021 5179 ft 190 kts 294°
2026-05-05 19:59 53.15165 -2.35799 5058 ft 185 kts 312°
2026-05-05 19:59 53.16026 -2.37412 4872 ft 187 kts 313°
2026-05-05 19:59 53.16901 -2.39024 4692 ft 188 kts 313°
2026-05-05 20:00 53.17778 -2.40644 4511 ft 189 kts 314°
2026-05-05 20:00 53.18653 -2.42272 4360 ft 189 kts 314°
2026-05-05 20:00 53.19531 -2.43915 4160 ft 189 kts 314°
2026-05-05 20:00 53.20396 -2.45539 3961 ft 185 kts 314°
2026-05-05 20:01 53.21244 -2.47130 3788 ft 183 kts 314°
2026-05-05 20:01 53.22086 -2.48710 3667 ft 177 kts 315°
2026-05-05 20:01 53.23046 -2.49797 3452 ft 160 kts 350°
2026-05-05 20:01 53.24113 -2.49742 3326 ft 152 kts 20°
2026-05-05 20:02 53.24964 -2.48810 3173 ft 145 kts 52°
2026-05-05 20:02 53.25587 -2.47481 3039 ft 148 kts 51°
2026-05-05 20:02 53.26254 -2.46153 2857 ft 148 kts 51°
2026-05-05 20:02 53.26908 -2.44848 2647 ft 145 kts 51°
2026-05-05 20:03 53.27540 -2.43579 2454 ft 140 kts 51°
2026-05-05 20:03 53.28158 -2.42331 2278 ft 140 kts 51°
2026-05-05 20:03 53.28782 -2.41065 2116 ft 139 kts 52°
2026-05-05 20:03 53.29394 -2.39818 1923 ft 138 kts 51°
2026-05-05 20:04 53.30000 -2.38579 1765 ft 138 kts 51°
2026-05-05 20:04 53.30613 -2.37327 1571 ft 141 kts 51°
2026-05-05 20:04 53.31240 -2.36044 1386 ft 144 kts 51°
2026-05-05 20:04 53.31879 -2.34731 1162 ft 148 kts 50°
2026-05-05 20:05 53.32532 -2.33389 970 ft 150 kts 51°
2026-05-05 20:05 53.33165 -2.32056 740 ft 139 kts 52°
2026-05-05 20:05 53.33744 -2.30852 490 ft 127 kts 51°
2026-05-05 20:05 53.34304 -2.29717 368 ft 128 kts 51°
2026-05-05 20:06 53.34872 -2.28541 241 ft 133 kts 51°
2026-05-05 20:06 53.35312 -2.27620 239 ft 33 kts 51°
2026-05-05 20:06 53.35456 -2.27327 241 ft 31 kts 50°
2026-05-05 20:06 53.35588 -2.27098 243 ft 22 kts 17°
2026-05-05 20:07 53.35675 -2.27159 243 ft 0 kts 322°
2026-05-05 20:07 53.35688 -2.27175 243 ft 5 kts 322°
2026-05-05 20:08 53.35707 -2.27273 242 ft 14 kts 247°
2026-05-05 20:08 53.35654 -2.27384 241 ft 0 kts 230°
2026-05-05 20:08 53.35652 -2.27388 241 ft 0 kts 230°
2026-05-05 20:10 53.35646 -2.27399 241 ft 6 kts 230°
2026-05-05 20:10 53.35624 -2.27516 240 ft 13 kts 296°
2026-05-05 20:10 53.35700 -2.27502 240 ft 13 kts 47°
2026-05-05 20:11 53.35757 -2.27386 242 ft 13 kts 52°
2026-05-05 20:11 53.35822 -2.27247 243 ft 16 kts 67°
2026-05-05 20:11 53.35803 -2.27077 245 ft 16 kts 66°
2026-05-05 20:11 53.35858 -2.26924 247 ft 15 kts 58°
2026-05-05 20:12 53.35941 -2.26834 248 ft 14 kts 343°
2026-05-05 20:12 53.36000 -2.26822 249 ft 4 kts 356°
2026-05-05 20:12 53.36022 -2.26857 248 ft 5 kts 308°
2026-05-05 20:12 53.36042 -2.26893 248 ft 0 kts 314°